Date,TemperatureHighF,TemperatureAvgF,TemperatureLowF,DewpointHighF,DewpointAvgF,DewpointLowF,HumidityHigh,HumidityAvg,HumidityLow,PressureMaxIn,PressureMinIn,WindSpeedMaxMPH,WindSpeedAvgMPH,GustSpeedMaxMPH,PrecipitationSumIn
2013-1-1,61,61,61,50,50,50,66,66,66,30.30,30.30,2,2,7,0.00
2013-1-4,61,60,60,51,50,48,68,67,66,30.29,30.21,9,5,25,0.00
2013-1-5,62,60,59,51,49,47,67,66,64,30.32,30.14,13,6,36,0.00
2013-1-6,61,60,59,50,49,47,67,66,65,30.24,30.11,13,6,37,0.00
2013-1-7,63,61,59,52,50,48,67,66,65,30.32,30.19,7,2,20,0.00
2013-1-8,62,60,59,51,49,48,67,66,65,30.26,30.14,9,4,29,0.00
2013-1-9,61,60,58,50,49,47,67,66,65,30.18,30.05,26,9,67,0.00
2013-1-10,62,60,59,51,49,48,67,66,65,30.24,30.11,22,10,61,0.00
2013-1-11,62,61,59,51,49,47,66,66,65,30.32,30.18,22,7,55,0.00
2013-1-12,62,61,59,51,49,47,67,66,65,30.31,30.18,9,4,29,0.00
2013-1-13,62,61,59,51,49,47,66,66,65,30.32,30.19,10,5,26,0.00
2013-1-14,64,25,61,53,-38,-100,67,27,65,30.45,30.26,9,4,29,0.00
2013-1-15,-200,0,200,-100,-100,-100,0,0,100,30.53,30.44,10,6,30,0.00
2013-1-16,-200,0,200,-100,-100,-100,0,0,100,30.35,30.27,8,4,26,0.00
2013-1-17,-200,0,200,-100,-100,-100,0,0,100,30.28,30.13,14,8,44,0.00
2013-1-18,-200,0,200,-100,-100,-100,0,0,100,30.24,30.14,11,4,32,0.00
2013-1-19,-200,0,200,-100,-100,-100,0,0,100,30.25,30.15,10,4,28,0.00
2013-1-20,-200,0,200,-100,-100,-100,0,0,100,30.23,30.11,10,6,31,0.00
2013-1-21,-200,0,200,-100,-100,-100,0,0,100,30.19,30.06,13,6,36,0.00
2013-1-22,-200,0,200,-100,-100,-100,0,0,100,30.13,30.03,15,5,41,0.00
2013-1-23,-200,0,200,-100,-100,-100,0,0,100,30.11,30.01,15,5,39,0.00
2013-1-24,-200,0,200,-100,-100,-100,0,0,100,30.22,30.07,7,3,22,0.00
2013-1-25,-200,0,200,-100,-100,-100,0,0,100,30.22,30.06,11,4,32,0.00
2013-1-26,-200,0,200,-100,-100,-100,0,0,100,30.15,30.04,24,10,63,0.00
2013-1-27,-200,0,200,-100,-100,-100,0,0,100,30.22,30.14,7,3,20,0.00
2013-1-29,-200,0,200,-100,-100,-100,0,0,100,30.34,30.30,7,3,18,0.00
2013-1-30,-200,0,200,-100,-100,-100,0,0,100,30.40,30.29,9,4,26,0.00
2013-1-31,-200,0,200,-100,-100,-100,0,0,100,30.31,30.19,11,4,39,0.00
2013-2-1,-200,0,200,-100,-100,-100,0,0,100,30.22,30.21,7,5,21,0.00
2013-2-4,-200,0,200,-100,-100,-100,0,0,100,30.21,30.10,11,5,30,0.00
2013-2-5,-200,0,200,-100,-100,-100,0,0,100,30.20,30.14,7,3,17,0.00
2013-2-6,-200,0,200,-100,-100,-100,0,0,100,30.25,30.16,10,4,30,0.00
2013-2-7,-200,0,200,-100,-100,-100,0,0,100,30.23,30.08,20,7,53,0.00
2013-2-8,-200,0,200,-100,-100,-100,0,0,100,30.08,30.00,21,6,54,0.00
2013-2-9,-200,0,200,-100,-100,-100,0,0,100,30.16,30.04,9,5,25,0.00
2013-2-10,-200,0,200,-100,-100,-100,0,0,100,30.17,30.06,10,5,25,0.00
2013-2-11,-200,0,200,-100,-100,-100,0,0,100,30.29,30.11,10,5,25,0.00
2013-2-12,-200,0,200,-100,-100,-100,0,0,100,30.41,30.29,10,6,25,0.00
2013-2-13,-200,0,200,-100,-100,-100,0,0,100,30.39,30.27,13,5,31,0.00
2013-2-14,-200,0,200,-100,-100,-100,0,0,100,30.28,30.16,14,4,43,0.00
2013-2-15,-200,0,200,-100,-100,-100,0,0,100,30.29,30.21,10,6,31,0.00
2013-2-16,-200,0,200,-100,-100,-100,0,0,100,30.25,30.09,13,6,36,0.00
2013-2-17,-200,0,200,-100,-100,-100,0,0,100,30.12,30.03,8,4,20,0.00
2013-2-18,-200,0,200,-100,-100,-100,0,0,100,30.12,30.05,16,7,43,0.00
2013-2-19,-200,0,200,-100,-100,-100,0,0,100,30.05,29.83,22,9,59,0.00
2013-2-20,-200,0,200,-100,-100,-100,0,0,100,30.13,29.88,22,7,58,0.00
2013-2-21,-200,0,200,-100,-100,-100,0,0,100,30.23,30.12,18,5,46,0.00
2013-2-22,-200,0,200,-100,-100,-100,0,0,100,30.31,30.23,11,6,30,0.00
2013-2-23,-200,0,200,-100,-100,-100,0,0,100,30.30,30.17,22,9,59,0.00
2013-2-24,-200,0,200,-100,-100,-100,0,0,100,30.30,30.19,14,5,39,0.00
2013-2-25,-200,0,200,-100,-100,-100,0,0,100,30.33,30.20,13,6,30,0.00
2013-2-26,-200,0,200,-100,-100,-100,0,0,100,30.25,30.15,9,4,24,0.00
2013-2-27,-200,0,200,-100,-100,-100,0,0,100,30.41,30.25,11,4,31,0.00
2013-2-28,-200,0,200,-100,-100,-100,0,0,100,30.50,30.40,14,4,34,0.00
2013-3-1,-200,0,200,-100,-100,-100,0,0,100,30.47,30.24,10,4,26,0.00
2013-3-2,-200,0,200,-100,-100,-100,0,0,100,30.27,30.14,13,6,32,0.00
2013-3-3,-200,0,200,-100,-100,-100,0,0,100,30.17,30.12,9,5,25,0.00
2013-3-5,-200,0,200,-100,-100,-100,0,0,100,30.11,29.97,20,13,54,0.00
2013-3-6,-200,0,200,-100,-100,-100,0,0,100,30.12,29.99,14,6,46,0.00
2013-3-7,-200,0,200,-100,-100,-100,0,0,100,30.06,29.90,15,6,39,0.00
2013-3-8,-200,0,200,-100,-100,-100,0,0,100,30.15,29.88,29,12,76,0.00
2013-3-9,-200,0,200,-100,-100,-100,0,0,100,30.35,30.15,23,8,58,0.00
2013-3-10,-200,0,200,-100,-100,-100,0,0,100,30.40,30.30,11,5,30,0.00
2013-3-11,-200,0,200,-100,-100,-100,0,0,100,30.31,30.16,14,4,34,0.00
2013-3-12,-200,0,200,-100,-100,-100,0,0,100,30.19,30.16,8,4,23,0.00
2013-3-14,-200,0,200,-100,-100,-100,0,0,100,30.18,30.13,9,5,25,0.00
2013-3-15,-200,0,200,-100,-100,-100,0,0,100,30.17,30.08,13,5,31,0.00
2013-3-16,-200,0,200,-100,-100,-100,0,0,100,30.15,30.07,17,5,43,0.00
2013-3-17,-200,0,200,-100,-100,-100,0,0,100,30.19,30.08,16,7,43,0.00
2013-3-18,-200,0,200,-100,-100,-100,0,0,100,30.18,30.09,16,6,41,0.00
2013-3-19,-200,0,200,-100,-100,-100,0,0,100,30.21,30.10,15,6,38,0.00
2013-3-20,-200,0,200,-100,-100,-100,0,0,100,30.18,30.11,9,4,24,0.00
2013-3-21,-200,0,200,-100,-100,-100,0,0,100,30.16,30.03,21,10,51,0.00
2013-3-22,-200,0,200,-100,-100,-100,0,0,100,30.12,30.04,17,6,44,0.00
2013-3-23,-200,0,200,-100,-100,-100,0,0,100,30.18,30.09,20,6,48,0.00
2013-3-24,-200,0,200,-100,-100,-100,0,0,100,30.15,30.03,14,5,34,0.00
2013-3-25,-200,0,200,-100,-100,-100,0,0,100,30.08,30.01,14,6,37,0.00
2013-3-26,-200,0,200,-100,-100,-100,0,0,100,30.06,30.00,14,7,36,0.00
2013-3-27,-200,0,200,-100,-100,-100,0,0,100,30.07,30.01,9,5,26,0.00
2013-3-28,-200,0,200,-100,-100,-100,0,0,100,30.13,30.06,10,4,28,0.00
2013-3-29,-200,0,200,-100,-100,-100,0,0,100,30.13,30.10,7,3,20,0.00
2013-4-2,-200,0,200,-100,-100,-100,0,0,100,30.21,30.14,16,12,41,0.00
2013-4-3,-200,0,200,-100,-100,-100,0,0,100,30.11,30.07,17,8,44,0.00
2013-4-4,-200,0,200,-100,-100,-100,0,0,100,30.17,30.09,11,5,29,0.00
2013-4-5,-200,0,200,-100,-100,-100,0,0,100,30.24,30.17,13,6,37,0.00
2013-4-6,-200,0,200,-100,-100,-100,0,0,100,30.25,30.18,14,6,38,0.00
2013-4-7,-200,0,200,-100,-100,-100,0,0,100,30.22,29.98,22,7,59,0.00
2013-4-8,-200,0,200,-100,-100,-100,0,0,100,30.05,29.91,32,18,89,0.00
2013-4-9,-200,0,200,-100,-100,-100,0,0,100,30.11,30.03,21,9,52,0.00
2013-4-10,-200,0,200,-100,-100,-100,0,0,100,30.21,30.08,10,5,29,0.00
2013-4-11,-200,0,200,-100,-100,-100,0,0,100,30.13,29.91,15,7,45,0.00
2013-4-12,-200,0,200,-100,-100,-100,0,0,100,29.99,29.91,15,6,39,0.00
2013-4-13,-200,0,200,-100,-100,-100,0,0,100,29.98,29.89,22,8,55,0.00
2013-4-14,-200,0,200,-100,-100,-100,0,0,100,30.00,29.91,26,10,71,0.00
2013-4-15,-200,0,200,-100,-100,-100,0,0,100,30.02,29.93,32,18,82,0.00
2013-4-16,-200,0,200,-100,-100,-100,0,0,100,30.17,30.02,26,10,67,0.00
2013-4-17,-200,0,200,-100,-100,-100,0,0,100,30.27,30.16,22,10,59,0.00
2013-4-18,-200,0,200,-100,-100,-100,0,0,100,30.31,30.24,11,5,30,0.00
2013-4-19,-200,0,200,-100,-100,-100,0,0,100,30.30,30.12,10,5,28,0.00
2013-4-20,-200,0,200,-100,-100,-100,0,0,100,30.14,30.04,13,6,31,0.00
2013-4-21,-200,0,200,-100,-100,-100,0,0,100,30.07,29.98,13,5,30,0.00
2013-4-22,-200,0,200,-100,-100,-100,0,0,100,30.02,29.95,14,5,34,0.00
2013-4-23,-200,0,200,-100,-100,-100,0,0,100,29.96,29.93,6,2,16,0.00
2013-5-1,-200,0,200,-100,-100,-100,0,0,100,30.13,30.08,9,5,24,0.00
2013-5-2,-200,0,200,-100,-100,-100,0,0,100,30.16,30.12,9,5,26,0.00
2013-5-3,-200,0,200,-100,-100,-100,0,0,100,30.13,29.88,9,4,25,0.00
2013-5-4,-200,0,200,-100,-100,-100,0,0,100,29.87,29.68,22,8,59,0.00
2013-5-5,-200,0,200,-100,-100,-100,0,0,100,29.84,29.70,22,9,62,0.00
2013-5-6,-200,0,200,-100,-100,-100,0,0,100,30.01,29.83,15,8,41,0.00
2013-5-7,-200,0,200,-100,-100,-100,0,0,100,30.11,30.00,15,5,39,0.00
2013-5-8,-200,0,200,-100,-100,-100,0,0,100,30.19,30.11,14,7,36,0.00
2013-5-9,-200,0,200,-100,-100,-100,0,0,100,30.22,30.15,18,7,47,0.00
2013-5-10,-200,0,200,-100,-100,-100,0,0,100,30.23,30.16,15,7,40,0.00
2013-5-11,-200,0,200,-100,-100,-100,0,0,100,30.20,30.12,11,6,31,0.00
2013-5-12,-200,0,200,-100,-100,-100,0,0,100,30.19,30.06,14,6,36,0.00
2013-5-13,-200,0,200,-100,-100,-100,0,0,100,30.15,30.01,15,7,41,0.00
2013-5-14,-200,0,200,-100,-100,-100,0,0,100,30.11,30.02,15,10,41,0.00
2013-5-15,-200,0,200,-100,-100,-100,0,0,100,30.14,30.07,22,10,60,0.00
2013-5-16,-200,0,200,-100,-100,-100,0,0,100,30.11,30.03,13,5,37,0.00
2013-5-17,-200,0,200,-100,-100,-100,0,0,100,30.13,30.05,23,8,66,0.00
2013-5-18,-200,0,200,-100,-100,-100,0,0,100,30.20,30.13,17,6,46,0.00
2013-5-19,-200,0,200,-100,-100,-100,0,0,100,30.16,30.02,11,6,30,0.00
2013-5-20,-200,0,200,-100,-100,-100,0,0,100,30.05,29.97,15,6,40,0.00
2013-5-21,-200,0,200,-100,-100,-100,0,0,100,30.06,29.98,26,12,73,0.00
2013-5-22,-200,0,200,-100,-100,-100,0,0,100,30.06,29.96,26,12,75,0.00
2013-5-23,-200,0,200,-100,-100,-100,0,0,100,30.07,30.01,20,8,54,0.00
2013-5-24,-200,0,200,-100,-100,-100,0,0,100,30.08,30.01,21,8,52,0.00
2013-5-25,-200,0,200,-100,-100,-100,0,0,100,30.13,30.06,21,9,55,0.00
2013-5-26,-200,0,200,-100,-100,-100,0,0,100,30.19,30.13,14,6,36,0.00
2013-5-27,-200,0,200,-100,-100,-100,0,0,100,30.20,30.09,16,7,44,0.00
2013-5-28,-200,0,200,-100,-100,-100,0,0,100,30.09,29.96,15,7,44,0.00
2013-5-29,-200,0,200,-100,-100,-100,0,0,100,30.02,29.99,8,4,23,0.00
2013-5-30,-200,0,200,-100,-100,-100,0,0,100,30.04,29.98,13,8,33,0.00
2013-5-31,-200,0,200,-100,-100,-100,0,0,100,30.05,29.96,14,7,38,0.00
2013-6-1,-200,0,200,-100,-100,-100,0,0,100,29.99,29.83,14,6,34,0.00
2013-6-2,-200,0,200,-100,-100,-100,0,0,100,29.85,29.81,13,7,32,0.00
2013-6-3,-200,0,200,-100,-100,-100,0,0,100,29.93,29.82,16,8,41,0.00
2013-6-4,-200,0,200,-100,-100,-100,0,0,100,30.03,29.93,13,7,30,0.00
2013-6-5,-200,0,200,-100,-100,-100,0,0,100,30.06,30.01,9,4,26,0.00
2013-6-6,-200,0,200,-100,-100,-100,0,0,100,30.03,29.96,10,5,29,0.00
2013-6-7,-200,0,200,-100,-100,-100,0,0,100,29.98,29.83,11,4,29,0.00
2013-6-8,-200,0,200,-100,-100,-100,0,0,100,29.91,29.83,18,9,50,0.00
2013-6-9,-200,0,200,-100,-100,-100,0,0,100,29.95,29.88,16,8,43,0.00
2013-6-10,-200,0,200,-100,-100,-100,0,0,100,30.01,29.92,8,5,22,0.00
2013-6-11,-200,0,200,-100,-100,-100,0,0,100,30.03,29.96,14,6,33,0.00
2013-8-12,62,62,62,53,53,52,70,70,70,30.02,30.02,8,8,22,0.00
2013-8-13,63,62,62,53,53,52,71,70,70,30.00,29.98,13,9,33,0.00
2013-8-14,65,64,62,56,54,52,74,72,70,29.98,29.92,13,7,33,0.00
2013-8-15,65,55,61,56,35,-100,74,62,69,29.98,29.96,8,4,23,0.00
2013-8-20,61,61,61,52,52,52,70,70,70,29.94,29.94,8,8,23,0.00
2013-9-5,62,62,62,54,54,54,73,73,73,29.96,29.96,17,17,44,0.00
2013-9-6,61,60,60,51,50,49,69,68,67,29.99,29.94,9,6,25,0.00
2013-9-9,62,62,61,53,52,51,71,70,69,29.82,29.80,7,6,20,0.00
2013-9-10,60,60,60,49,49,49,67,67,67,29.82,29.82,5,5,14,0.00
2013-9-11,63,62,58,54,52,47,73,71,67,30.05,30.00,7,5,21,0.00
2013-9-12,64,62,60,56,53,50,74,71,68,30.01,29.94,9,5,25,0.00
2013-9-13,62,61,60,53,51,50,71,70,68,29.95,29.81,9,5,24,0.00
2013-9-14,63,58,60,54,44,-100,73,67,67,29.87,29.77,8,6,23,0.00
2013-9-15,62,60,60,52,50,49,70,68,67,29.88,29.83,5,3,14,0.00
2013-9-17,62,61,61,52,51,51,70,70,69,29.93,29.90,24,20,62,0.00
2013-9-18,63,62,61,53,52,51,71,70,69,29.90,29.90,7,4,18,0.00
2013-9-19,62,61,60,52,50,49,70,68,67,29.89,29.79,10,4,28,0.00
2013-9-20,63,61,60,54,51,49,72,69,66,29.90,29.82,8,5,21,0.00
2013-9-21,62,62,62,53,53,52,71,71,70,29.89,29.89,18,12,52,0.00
2013-9-23,63,62,61,55,53,51,72,71,69,30.01,29.93,11,5,30,0.00
2013-9-24,62,60,59,52,50,49,70,68,67,30.02,29.94,20,9,54,0.00
2013-9-25,60,60,59,50,49,48,68,67,66,30.00,29.87,28,14,74,0.00
2013-9-26,61,60,59,51,49,47,70,67,65,30.02,29.88,11,5,33,0.00
2013-9-27,61,60,59,51,49,47,69,67,65,30.12,30.02,14,4,39,0.00
2013-9-28,61,56,59,51,40,-100,70,63,66,30.10,30.04,9,6,23,0.00
2013-9-29,63,61,59,54,50,48,71,68,66,30.14,30.08,8,4,23,0.00
2013-10-8,59,58,56,48,46,44,66,65,64,29.96,29.80,11,6,34,0.00
2013-10-9,59,58,57,49,47,45,67,65,64,29.82,29.70,13,7,32,0.00
2013-10-10,60,59,58,49,48,46,67,66,64,30.06,29.82,10,5,30,0.00
2013-10-11,60,59,58,49,48,47,67,66,65,30.13,30.03,11,5,32,0.00
2013-10-12,60,56,58,49,41,-100,66,62,64,30.05,29.98,9,5,26,0.00
2013-10-13,61,60,59,50,49,47,67,66,65,30.10,29.99,10,4,28,0.00
2013-10-14,61,60,59,50,49,47,66,66,65,30.13,30.10,7,5,20,0.00
2013-10-15,60,59,58,49,48,47,67,66,66,30.01,30.00,2,1,7,0.00
2013-10-17,60,60,60,50,50,50,68,68,68,29.99,29.99,7,7,20,0.00
2013-10-18,60,59,58,49,48,47,66,66,65,30.07,30.03,8,5,21,0.00
2013-10-19,61,58,59,50,44,-100,67,64,65,30.10,30.05,9,4,25,0.00
2013-10-20,60,60,60,48,48,48,66,66,66,30.09,30.09,6,6,14,0.00
2013-10-21,60,59,58,48,48,47,66,65,65,30.04,29.98,9,4,26,0.00
2013-10-22,59,59,58,48,47,46,66,65,64,30.03,30.01,9,6,25,0.00
2013-10-23,60,59,58,49,48,47,66,65,65,29.98,29.98,10,7,28,0.00
2013-10-24,60,60,58,49,48,46,66,65,64,30.13,30.07,5,2,15,0.00
2013-10-25,60,60,59,49,48,47,66,66,65,30.19,30.11,10,7,25,0.00
2013-10-28,60,55,59,49,38,-100,66,66,65,29.92,29.80,17,10,47,0.00
2013-10-29,60,60,60,48,48,48,65,65,65,29.92,29.92,5,5,11,0.00
2013-11-3,60,59,58,48,48,47,66,65,65,30.06,29.96,13,5,34,0.00
2013-11-4,60,60,59,48,48,48,65,65,65,30.06,30.00,8,6,23,0.00
2013-11-5,60,60,60,49,49,48,66,66,66,30.20,30.16,5,2,13,0.00
2013-11-6,60,59,59,49,48,48,66,66,66,30.19,30.18,2,2,7,0.00
2013-11-7,60,60,59,49,48,48,66,66,66,30.12,30.11,7,5,20,0.00
2013-11-8,61,60,59,50,48,47,66,66,65,30.09,29.98,9,5,24,0.00
2013-11-9,60,59,58,49,48,47,66,65,65,30.05,30.01,11,7,31,0.00
2013-11-11,60,60,59,49,49,47,67,66,65,30.19,30.13,8,3,21,0.00
2013-11-12,60,60,59,49,48,47,67,66,65,30.28,30.18,6,3,18,0.00
2013-11-13,61,60,59,49,48,47,66,65,65,30.27,30.15,10,5,26,0.00
2013-11-14,60,59,58,49,47,47,66,65,65,30.15,30.04,9,6,24,0.00